| time (UTC) | temp C | wind direction | speed KPH | gust KPH | rain 1hr cm | rain 24hr cm | rain mn cm | humidity % | barometer mb |
| 20260505223102 | 26 | 129 | 11.3 | 14.5 | 0.00 | 0.00 | 0.00 | 76 | 1011.6 |
| 20260505221607 | 27 | 134 | 8.0 | 12.9 | 0.00 | 0.00 | 0.00 | 75 | 1011.8 |
| 20260505220117 | 26 | 137 | 9.7 | 12.9 | 0.00 | 0.00 | 0.00 | 74 | 1011.8 |
| 20260505214608 | 27 | 122 | 9.7 | 12.9 | 0.00 | 0.00 | 0.00 | 72 | 1011.9 |
| 20260505213050 | 27 | 126 | 8.0 | 12.9 | 0.00 | 0.00 | 0.00 | 71 | 1012.2 |
| 20260505211558 | 27 | 134 | 3.2 | 12.9 | 0.00 | 0.00 | 0.00 | 70 | 1012.5 |
| 20260505210048 | 27 | 125 | 4.8 | 12.9 | 0.00 | 0.00 | 0.00 | 70 | 1012.6 |
| 20260505204549 | 27 | 138 | 8.0 | 12.9 | 0.00 | 0.00 | 0.00 | 69 | 1012.8 |
| 20260505203049 | 28 | 136 | 4.8 | 9.7 | 0.00 | 0.00 | 0.00 | 67 | 1012.9 |
| 20260505201548 | 28 | 142 | 6.4 | 11.3 | 0.00 | 0.00 | 0.00 | 68 | 1012.9 |
| 20260505200059 | 28 | 139 | 3.2 | 9.7 | 0.00 | 0.00 | 0.00 | 67 | 1013.0 |
| 20260505194548 | 28 | 147 | 3.2 | 6.4 | 0.00 | 0.00 | 0.00 | 66 | 1013.1 |
| 20260505193044 | 29 | 157 | 1.6 | 6.4 | 0.00 | 0.00 | 0.00 | 65 | 1013.2 |
| 20260505191543 | 31 | 173 | 1.6 | 9.7 | 0.00 | 0.00 | 0.00 | 60 | 1013.3 |
| 20260505190047 | 31 | 184 | 1.6 | 9.7 | 0.00 | 0.00 | 0.00 | 59 | 1013.4 |
| 20260505184541 | 31 | 209 | 1.6 | 9.7 | 0.00 | 0.00 | 0.00 | 59 | 1013.6 |
| 20260505183047 | 31 | 141 | 3.2 | 9.7 | 0.00 | 0.00 | 0.00 | 59 | 1013.8 |
| 20260505181539 | 31 | 190 | 3.2 | 11.3 | 0.00 | 0.00 | 0.00 | 61 | 1014.1 |
| 20260505180034 | 31 | 140 | 1.6 | 6.4 | 0.00 | 0.00 | 0.00 | 63 | 1014.2 |
| 20260505174531 | 30 | 167 | 0.0 | 9.7 | 0.00 | 0.00 | 0.00 | 65 | 1014.3 |
| 20260505173034 | 28 | 166 | 4.8 | 11.3 | 0.00 | 0.00 | 0.00 | 69 | 1014.2 |
| 20260505171523 | 28 | 180 | 9.7 | 14.5 | 0.00 | 0.00 | 0.00 | 71 | 1014.1 |
| 20260505170027 | 27 | 154 | 8.0 | 16.1 | 0.00 | 0.00 | 0.00 | 71 | 1014.3 |
| 20260505164520 | 28 | 146 | 8.0 | 11.3 | 0.00 | 0.00 | 0.00 | 70 | 1014.6 |
| 20260505163019 | 27 | 150 | 6.4 | 12.9 | 0.00 | 0.00 | 0.00 | 71 | 1014.4 |
| 20260505161520 | 27 | 101 | 8.0 | 11.3 | 0.00 | 0.00 | 0.00 | 70 | 1014.4 |
| 20260505153016 | 27 | 146 | 4.8 | 9.7 | 0.00 | 0.00 | 0.00 | 68 | 1014.1 |
| 20260505151511 | 28 | 157 | 0.0 | 3.2 | 0.00 | 0.00 | 0.00 | 68 | 1014.0 |
| 20260505124544 | 19 | 299 | 11.3 | 16.1 | 0.00 | 0.00 | 0.00 | 86 | 1012.9 |
| 20260505123037 | 19 | 302 | 9.7 | 14.5 | 0.00 | 0.00 | 0.00 | 86 | 1012.7 |
| 20260505121540 | 19 | 311 | 11.3 | 16.1 | 0.00 | 0.00 | 0.00 | 86 | 1012.7 |
| 20260505120043 | 19 | 309 | 8.0 | 12.9 | 0.00 | 0.00 | 0.00 | 86 | 1012.4 |
| 20260505114533 | 19 | 286 | 9.7 | 14.5 | 0.00 | 0.00 | 0.00 | 87 | 1012.4 |
| 20260505113034 | 20 | 310 | 9.7 | 11.3 | 0.00 | 0.00 | 0.00 | 88 | 1012.4 |
| 20260505111531 | 20 | 318 | 8.0 | 12.9 | 0.00 | 0.00 | 0.00 | 87 | 1012.6 |
| 20260505101527 | 20 | 300 | 3.2 | 6.4 | 0.00 | 0.00 | 0.00 | 89 | 1012.2 |
| 20260505100024 | 20 | 286 | 4.8 | 8.0 | 0.00 | 0.00 | 0.00 | 89 | 1012.2 |
| 20260505094529 | 20 | 286 | 4.8 | 8.0 | 0.00 | 0.00 | 0.00 | 89 | 1012.2 |
| 20260505093022 | 19 | 287 | 3.2 | 6.4 | 0.00 | 0.00 | 0.00 | 89 | 1012.2 |
| 20260505091520 | 19 | 296 | 3.2 | 6.4 | 0.00 | 0.00 | 0.00 | 88 | 1012.2 |
| 20260505090021 | 19 | 298 | 4.8 | 8.0 | 0.00 | 0.00 | 0.00 | 88 | 1012.4 |
| 20260505084532 | 19 | 292 | 3.2 | 4.8 | 0.00 | 0.00 | 0.00 | 87 | 1012.4 |
| 20260505083019 | 19 | 304 | 1.6 | 3.2 | 0.00 | 0.00 | 0.00 | 87 | 1012.4 |
| 20260505081517 | 19 | 304 | 1.6 | 4.8 | 0.00 | 0.00 | 0.00 | 86 | 1012.5 |
| 20260505080014 | 19 | 298 | 1.6 | 6.4 | 0.00 | 0.00 | 0.00 | 85 | 1012.7 |
| 20260505074512 | 19 | 292 | 1.6 | 4.8 | 0.00 | 0.00 | 0.00 | 84 | 1012.6 |
| 20260505073010 | 19 | 300 | 0.0 | 3.2 | 0.00 | 0.00 | 0.00 | 83 | 1012.6 |
| 20260505071508 | 20 | 308 | 0.0 | 0.0 | 0.00 | 0.00 | 0.00 | 85 | 1012.6 |
| 20260505070005 | 20 | 315 | 0.0 | 1.6 | 0.00 | 0.00 | 0.00 | 81 | 1012.6 |
| 20260505064505 | 21 | 315 | 0.0 | 0.0 | 0.00 | 0.00 | 0.00 | 85 | 1012.6 |
| 20260505063006 | 21 | 315 | 0.0 | 0.0 | 0.00 | 0.00 | 0.00 | 82 | 1012.6 |
| 20260505061503 | 21 | 315 | 0.0 | 0.0 | 0.00 | 0.00 | 0.00 | 83 | 1012.6 |
| 20260505060004 | 21 | 315 | 0.0 | 0.0 | 0.00 | 0.00 | 0.00 | 82 | 1012.7 |
| 20260505054502 | 21 | 312 | 0.0 | 1.6 | 0.00 | 0.00 | 0.00 | 82 | 1012.7 |
| 20260505053001 | 21 | 295 | 3.2 | 4.8 | 0.00 | 0.00 | 0.00 | 82 | 1012.8 |
| 20260505051502 | 21 | 290 | 1.6 | 3.2 | 0.00 | 0.00 | 0.00 | 82 | 1012.8 |
| 20260505041605 | 22 | 333 | 0.0 | 3.2 | 0.00 | 0.00 | 0.00 | 79 | 1012.6 |
| 20260505040058 | 23 | 29 | 0.0 | 0.0 | 0.00 | 0.00 | 0.00 | 79 | 1012.6 |
| 20260505034558 | 23 | 29 | 0.0 | 1.6 | 0.00 | 0.00 | 0.00 | 79 | 1012.5 |
| 20260505033058 | 23 | 29 | 0.0 | 3.2 | 0.00 | 0.00 | 0.00 | 79 | 1012.4 |
| 20260505031606 | 23 | 100 | 0.0 | 0.0 | 0.00 | 0.00 | 0.00 | 79 | 1012.3 |
| 20260505030059 | 23 | 126 | 0.0 | 3.2 | 0.00 | 0.00 | 0.00 | 79 | 1012.2 |
| 20260505024604 | 23 | 109 | 0.0 | 3.2 | 0.00 | 0.00 | 0.00 | 79 | 1012.2 |
| 20260505023056 | 23 | 103 | 0.0 | 4.8 | 0.00 | 0.00 | 0.00 | 78 | 1012.0 |
| 20260505021559 | 23 | 121 | 1.6 | 4.8 | 0.00 | 0.00 | 0.00 | 78 | 1011.8 |
| 20260505020054 | 24 | 119 | 1.6 | 4.8 | 0.00 | 0.00 | 0.00 | 78 | 1011.9 |
| 20260505014607 | 24 | 141 | 3.2 | 6.4 | 0.00 | 0.00 | 0.00 | 78 | 1011.6 |
| 20260505013054 | 24 | 146 | 3.2 | 6.4 | 0.00 | 0.00 | 0.00 | 77 | 1011.5 |
| 20260505011605 | 24 | 156 | 1.6 | 6.4 | 0.00 | 0.00 | 0.00 | 77 | 1011.5 |
| 20260505010054 | 25 | 142 | 4.8 | 6.4 | 0.00 | 0.00 | 0.00 | 77 | 1011.4 |
| 20260505004553 | 25 | 138 | 3.2 | 8.0 | 0.00 | 0.00 | 0.00 | 76 | 1011.4 |
| 20260505003053 | 25 | 134 | 6.4 | 11.3 | 0.00 | 0.00 | 0.00 | 75 | 1011.4 |
| 20260505001551 | 25 | 121 | 4.8 | 11.3 | 0.00 | 0.00 | 0.00 | 75 | 1011.5 |
| 20260505000105 | 25 | 128 | 6.4 | 14.5 | 0.00 | 0.00 | 0.00 | 74 | 1011.7 |
| 20260504234550 | 25 | 127 | 8.0 | 14.5 | 0.00 | 0.00 | 0.00 | 74 | 1011.8 |
| 20260504233105 | 25 | 107 | 9.7 | 14.5 | 0.00 | 0.00 | 0.00 | 74 | 1011.8 |
| 20260504231548 | 25 | 115 | 9.7 | 16.1 | 0.00 | 0.00 | 0.00 | 73 | 1011.9 |
| 20260504230045 | 26 | 133 | 8.0 | 14.5 | 0.00 | 0.00 | 0.00 | 73 | 1012.0 |
| 20260504224544 | 26 | 124 | 11.3 | 14.5 | 0.00 | 0.00 | 0.00 | 72 | 1012.0 |